Regional Weather Roundup
Issued by NWS Midland/Odessa, TX

Home | Current Version | Previous Version | Text Only | Print | Product List | Glossary On
Versions: 1 2 3 4 5 6 7 8 9 10 11 12 13 14 15 16 17 18 19 20 21 22 23 24 25 26 27 28 29 30 31 32 33 34 35 36 37 38 39 40 41 42 43 44 45 46 47 48 49 50
000
ASUS44 KMAF 300802
RWRMAF
MIDLAND AREA WEATHER ROUNDUP
NATIONAL WEATHER SERVICE MIDLAND TX
300 AM CDT WED JUL 30 2014

...IN SOUTHWEST TEXAS AND SOUTHEAST NEW MEXICO...

CITY           SKY/WX    TMP DP  RH WIND       PRES   REMARKS
ALPINE         CLEAR     76  48  37 S13       30.20F
ANDREWS        FAIR      73  64  73 S6        30.08S
ARTESIA        MOCLDY    73  63  68 NE6       30.08F
BIG SPRING     PTCLDY    79  66  64 SE10      30.07S
CARLSBAD       CLOUDY    81  50  33 SE6       30.04F
DRYDEN           N/A     86  52  30 SE10      30.02F
FORT STOCKTON  CLEAR     80  52  37 S14G24    30.04F
GUAD PASS      MOCLDY    74  51  44 NE12      30.21F
HOBBS          CLOUDY    70  63  78 E5        30.11S
MARFA          CLEAR     70  48  46 S3        30.21F
MIDLAND AIRPK  PTCLDY    79  60  53 SE8       30.07S
MIDLAND INTL   PTCLDY    78  57  48 SE9       30.06R
ODESSA           N/A     78  51  38 S7        30.07R
PECOS          CLEAR     80  48  33 SE8       30.00F
PRESIDIO       FAIR      85  49  29 NE6       30.02F
SEMINOLE       PTCLDY    70  64  79 CALM      30.10S
SNYDER         CLEAR     73  66  79 S10       30.05F
WINK           PTCLDY    83  52  34 SE13      30.02S
$$
...OTHER STATIONS IN TEXAS...

CITY           SKY/WX    TMP DP  RH WIND       PRES   REMARKS
ABILENE        PTCLDY    75  67  76 S14       30.04F
AMARILLO       CLOUDY    67  62  84 SE14      30.10F
AUSTIN         PTCLDY    72  68  87 CALM      30.05S
BROWNSVILLE    PTCLDY    77  75  93 CALM      30.04R
CORPUS CHRISTI PTCLDY    75  73  93 S7        30.02F
DALLAS FTW     MOCLDY    75  65  70 E6        30.02F
DEL RIO        CLEAR     83  62  49 E10       29.99S
EL PASO        PTCLDY    76  68  76 E3        30.08F
HOUSTON INT    PTCLDY    74  72  93 SE3       30.04S
LUBBOCK        CLOUDY    71  65  81 S9        30.09F
SAN ANGELO     MOCLDY    78  67  68 SE9       30.03F
SAN ANTONIO    CLEAR     79  71  76 S12       30.06S
WACO           PTCLDY    74  68  81 SE7       30.04R
WICHITA FALLS  NOT AVBL
$$
...OTHER LOCATIONS IN NEW MEXICO...

CITY           SKY/WX    TMP DP  RH WIND       PRES   REMARKS
ALAMAGORDO     CLEAR     73  59  60 NE5       30.12F
ALBUQUERQUE    MOCLDY    69  60  73 NW7       30.21S
CANNON AFB     CLEAR     66  64  94 S7        30.13F
CLOVIS         NOT AVBL
HOLLOMAN AFB   CLEAR     73  64  73 SW6       30.09F
ROSWELL        PTCLDY    73  68  84 CALM      30.07F
RUIDOSO        PTCLDY    63  57  82 CALM      30.32F
SANTA FE       PTCLDY    61  57  87 CALM      30.26F
TRUTH OR CONSE PTCLDY    66  64  93 NW6       30.15F
TUCUMCARI      PTCLDY    70  65  84 S6        30.10F
$$


USA.gov is the U.S. government's official web portal to all federal, state and local government web resources and services.